User: anonymous
Location: Springfield
(37.2150°N, 93.2980°W)
Time: 10:42:52
(UTC-05:00)
Language:

Iridium 62 - Orbit

View from above orbital plane
View from above orbital plane
View from above satellite
View from above satellite

Ground track
Ground track

The orbit data is extracted from the following two-line orbital elements,

1 25285U 98021A   14233.24431556  .00000213  00000-0  68867-4 0  8922
2 25285 086.3956 294.8389 0002454 111.1539 248.9919 14.34219007857250
Epoch (UTC): 21 August 2014 05:51:48
Eccentricity: 0.0002454
inclination: 86.3956°
perigee height: 776 km
apogee height: 779 km
right ascension of ascending node: 294.8389°
argument of perigee: 111.1539°
revolutions per day: 14.34219007
mean anomaly at epoch: 248.9919°
orbit number at epoch: 85725

The dashed part of the orbit path shows where the satellite is in the earth's shadow,  

DLR